Weather History for CWAR - October, 2011

Change the Weather History Date:

Saturday, October 15, 2011

  Actual Average Record
Temperature  
Mean Temperature 58 °F -  
Max Temperature 64 °F - - ()
Min Temperature 52 °F - - ()
Degree Days  
Heating Degree Days 7    
Growing Degree Days 8 (Base 50)    
Moisture  
Dew Point 56 °F    
Average Humidity 92    
Maximum Humidity 97    
Minimum Humidity 84    
Precipitation  
Precipitation 0.43 in - - ()
Sea Level Pressure  
Sea Level Pressure 30.02 in    
Wind  
Wind Speed 21 mph ()    
Max Wind Speed 29 mph    
Max Gust Speed 41 mph    
T = Trace of Precipitation, MM = Missing Value Source: Averaged Metar Reports

Daily Weather History Graph

Daily Weather History Graph

Search for Another Location

Airport or City:

Trip Planner

Search our weather history database for the weather conditions in past years. The results will help you decide how hot, cold, wet, or windy it might be!

Date:

Astronomy

Oct. 15, 2011 Rise Set
Actual Time 7:23 AM NDT 6:18 PM NDT
Civil Twilight 6:53 AM NDT 6:49 PM NDT
Nautical Twilight 6:17 AM NDT 7:25 PM NDT
Astronomical Twilight 5:42 AM NDT 8:00 PM NDT
Moon 7:54 PM NDT (10/15) 10:59 AM NDT (10/15)
Length of Visible Light 11h 56m
Length of Day
10h 55m
Waning Gibbous, 89% of the Moon is Illuminated
Oct 15
Waning Gibbous
Oct 20
Last Quarter
Oct 26
New
Nov 2
First Quarter
Nov 10
Full

Hourly Weather History & Observations

Time (NDT) Temp. Dew Point Humidity Pressure Visibility Wind Dir Wind Speed Gust Speed Precip Events Conditions
12:30 AM 54 °F 51 °F 84% 30.23 in - SE 23.0 mph - -  
12:30 AM 54.0 °F 50.5 °F 88% 30.23 in - SE 23.0 mph 31.1 mph N/A   Unknown
1:30 AM 53.6 °F 50.5 °F 89% 30.20 in - SE 21.9 mph 29.9 mph N/A   Unknown
2:30 AM 52.7 °F 50.2 °F 91% 30.17 in - SE 26.5 mph - N/A   Unknown
3:30 AM 53 °F 51 °F 88% 30.14 in - SE 28.8 mph - -  
3:30 AM 52.7 °F 50.5 °F 92% 30.14 in - SE 28.8 mph 35.7 mph 0.03 in   Unknown
4:30 AM 53.1 °F 51.1 °F 93% 30.12 in - SE 27.6 mph 33.4 mph 0.07 in   Unknown
5:30 AM 53.8 °F 51.6 °F 92% 30.11 in - SE 27.6 mph 34.5 mph 0.08 in   Unknown
6:30 AM 54 °F 52 °F 92% 30.09 in - SE 25.3 mph - -  
6:30 AM 54.3 °F 52.3 °F 93% 30.09 in - SE 25.3 mph 33.4 mph 0.04 in   Unknown
7:30 AM 55.2 °F 53.1 °F 92% 30.07 in - SE 28.8 mph 41.4 mph 0.04 in   Unknown
8:30 AM 55.8 °F 53.8 °F 93% 30.07 in - SE 27.6 mph 35.7 mph 0.05 in   Unknown
9:30 AM 56 °F 54 °F 92% 30.04 in - SE 26.5 mph - -  
9:30 AM 56.3 °F 54.3 °F 93% 30.04 in - SE 26.5 mph 35.7 mph 0.14 in   Unknown
10:30 AM 57.0 °F 54.9 °F 92% 30.01 in - SE 26.5 mph 38.0 mph 0.17 in   Unknown
11:30 AM 58.3 °F 56.1 °F 93% 30.00 in - SSE 23.0 mph 33.4 mph 0.09 in   Unknown
12:30 PM 60.4 °F 58.3 °F 93% 29.99 in - South 21.9 mph 32.2 mph 0.02 in   Unknown
1:30 PM 62.4 °F 60.4 °F 93% 29.96 in - South 20.7 mph 28.8 mph N/A   Unknown
2:30 PM 63.9 °F 61.9 °F 93% 29.94 in - South 20.7 mph 27.6 mph N/A   Unknown
3:30 PM 64 °F 62 °F 90% 29.92 in - South 21.9 mph - -  
3:30 PM 63.9 °F 61.9 °F 93% 29.92 in - South 21.9 mph 34.5 mph 0.04 in   Unknown
4:30 PM 64.0 °F 61.5 °F 91% 29.91 in - South 17.3 mph 23.0 mph N/A   Unknown
5:30 PM 63.1 °F 61.2 °F 93% 29.91 in - South 23.0 mph 29.9 mph 0.02 in   Unknown
6:30 PM 63 °F 61 °F 92% 29.90 in - South 21.9 mph - -  
6:30 PM 63.0 °F 61.2 °F 94% 29.90 in - South 21.9 mph 28.8 mph 0.02 in   Unknown
7:30 PM 62.1 °F 60.4 °F 94% 29.90 in - SSW 23.0 mph - 0.11 in   Unknown
8:30 PM 58.8 °F 57.6 °F 96% 29.90 in - SSW 21.9 mph 31.1 mph N/A   Unknown
9:30 PM 56 °F 55 °F 97% 29.91 in - SSW 19.6 mph - -  
9:30 PM 56.3 °F 55.4 °F 97% 29.91 in - SSW 19.6 mph - N/A   Unknown
10:30 PM 54.7 °F 54.0 °F 97% 29.92 in - SSW 13.8 mph - N/A   Unknown
11:30 PM 54.7 °F 54.0 °F 97% 29.93 in - SSW 13.8 mph - 0.02 in   Unknown